ONEWEB-0067, 45425

Orbit data source: Space-Track

ONEWEB-0067, 45425 is a payload satellite owned by One Web (UK) in LEO that was launched on Sat, 21 Mar 2020 UTC via a SOYUZ-2-1B launch vehicle from the Tyuratam Missile And Space Complex (TTMTR). Payloads include a variety of satellites, spacecraft, and rockets equipped with specific instruments for various scientific and technological missions. These include communications satellites like Starlink; space stations such as the ISS; scientific satellites like the Hubble; Earth observation satellites from companies like Planet Labs, Umbra, and HawkEye 360; GPS; miniature CubeSats for education and research; and military/defense satellites.

Loading next visibility...
ONEWEB-0067 details
Identifier
45425, 2020-020B
Orbit
LEO
Last TLE update17 hours ago
Origin
Flag of UKOne Web (UK)
ManufacturerOne Web
MissionOperational Commercial Communications
Bus & MotorARROW, Unknown motor
Mass148 kg wet, ~140 kg dry
Launch date (UTC)
2020-03-21 (5 years ago)
Launch vehicle
SOYUZ-2-1B
Launch site
Tyuratam Missile And Space Complex (TTMTR)
Object type
Payload
Rocket body
Debris
Shape & HBRTrap Box + 2 Pan, 5 m
Radar Cross Section2.957 m², Large (>1 m²)

Expand to show TLE details & history

TLE from 17 hours ago
0 ONEWEB-0067
1 45425U 20020B   24355.79853458 -.00000435  00000-0 -12646-2 0  9997
2 45425  87.8888 129.2835 0001479  92.3772 267.7526 13.11417813231517
Epoch: 2024-12-20T19:09Z
Definitive object data (Epoch: 2024-12-20T19:09:53.387Z)
Latitude0.00004°
Longitude111.95218°
Altitude1,220.613 km
Speed7.244 km/s
True Right ascension08h 37m 08s
True Declination0° 00' 00"
Sunlit
Object was in full shadow at TLE epoch
Visualization TLE readout
Latitude57.29855°
Longitude-71.46455°
Altitude1,226.404 km
Speed7.247 km/s
Apparent Right ascension21h 58m 37s
Apparent Declination15° 23' 16"
Sunlit
Object is in daylight
Visualization observer readout
Local Sidereal Time11:17:52
Azimuth22.589° NE
Elevation-31.698°
Doppler factor1
Orbital elements
Apogee altitude1,215.921 km
Perigee altitude1,213.675 km
Semi-major axis7,592.935 km
Eccentricity0.0001479
Inclination87.8888°
RAAN129.2835°
Arg. of periapsis92.3772°
True anomaly267.73567°
Mean anomaly267.7526°
Eccentric anomaly267.74413°
Mean motion3.28041 °/min
BSTAR-0.0012646
Orbital period109.74 mins
Loading maneuver chart data...
Loading historical data...
Loading historical data...
Loading historical data...
Loading historical data...
Loading historical data...
Loading historical data...
Loading historical data...

ONEWEB-0067 Visibility forecast

Observer location: undefined°, undefined

Span
Click to sort rows by Start time (UTC) header in descending order
Start Az.
Max El. time (UTC)
Max El. Az.
Max El.
End time (UTC)
End Az.
8 mins2024-12-21 19:36:06.552Z39.35° NE2024-12-21 19:40:06.552Z74.279° E15.766°2024-12-21 19:44:06.552Z108.343° ESE
12 mins2024-12-21 21:25:06.552Z357.592° N2024-12-21 21:31:06.552Z217.674° SW44.59°2024-12-21 21:37:06.552Z184.672° SSW
4 mins2024-12-21 23:18:06.552Z301.189° NW2024-12-21 23:19:06.552Z292.453° WNW13.294°2024-12-21 23:22:06.552Z266.955° W
7 mins2024-12-22 07:57:06.552Z102.776° ESE2024-12-22 08:00:06.552Z74.744° E17.739°2024-12-22 08:04:06.552Z38.458° NE
13 mins2024-12-22 09:43:06.552Z186.488° SSW2024-12-22 09:49:06.552Z258.487° W44.125°2024-12-22 09:56:06.552Z357.113° N
|